Куйбышевский

Kazakhstan     53˚15′00″N   66˚51′00″E
temp.,
°C
wind,
m/s
gust,
m/s
humid.,
%
clouds,
%
prec.,
mm/h
press.,
hPa
HPBL,
m
2 december, wed
wed223:00−15˚e23890 0.0 105132
02:00−15˚ene23880 0.0 105021
05:00−15˚ene34870 0.0 104947
08:00−15˚ene34890 0.0 104866
11:00−12˚ene36880 0.0 1046151
14:00−10˚ene36880 0.0 1044160
17:00−12˚ene45910 0.0 104389
20:00−13˚ene46910 0.0 1042116
3 december, thu
thu323:00−14˚ene36900 0.0 104198
02:00−14˚ene369031 0.0 1039101
05:00−14˚ne478960 0.0 1039151
08:00−14˚ne4789100 0.0 1038173
11:00−13˚ene5883100 0.0 1038265
14:00−12˚ne5885100 0.0 1037270
17:00−14˚ne5890100 0.0 1037251
20:00−15˚ne4890100 0.0 1037225
4 december, fri
fri423:00−16˚ne479283 0.0 1037178
02:00−16˚ne479151 0.0 1037163
05:00−17˚ne479143 0.0 1037165
08:00−17˚ne47930 0.0 1037146
11:00−16˚ne46890 0.0 1038209
14:00−14˚nne35880 0.0 1038204
17:00−16˚nne339112 0.0 103977
20:00−16˚ne239147 0.0 103952
5 december, sat
sat523:00−16˚ne229065 0.0 104021
02:00−16˚nne229085 0.0 104035
05:00−17˚nne239069 0.0 104028
08:00−17˚ne22900 0.0 104120
11:00−15˚ne12860 0.0 104287
14:00−14˚ne23860 0.0 1042155
17:00−16˚ne22890 0.0 104220
20:00−16˚ne12890 0.0 104320
6 december, sun
sun623:00−16˚nne11880 0.0 104320
02:00−16˚nnw11860 0.0 104420
05:00−17˚nw11850 0.0 104420
08:00−17˚wnw11830 0.0 104420
11:00−15˚w22800 0.0 104478
14:00−14˚w22840 0.0 1044128
17:00−15˚wsw22900 0.0 104320
20:00−16˚wsw22930 0.0 104320